User: anonymous   Login
Location: Unspecified
(0.0000°N, 0.0000°E)
Time: 05:33:38
(UTC+00:00)
Language:

NADEZHDA 7 - Orbit

View from above orbital plane
View from above orbital plane
View from above satellite
View from above satellite

Ground track
Ground track

The orbit data is extracted from the following two-line orbital elements,

1 27534U 02046A   18267.51318589 +.00000018 +00000-0 +36888-5 0  9994
2 27534 082.9320 256.0993 0034841 255.5985 219.9968 13.72702416801387
Epoch (UTC): 24 September 2018 12:18:59
Eccentricity: 0.0034841
inclination: 82.9320°
perigee height: 964 km
apogee height: 1015 km
right ascension of ascending node: 256.0993°
argument of perigee: 255.5985°
revolutions per day: 13.72702416
mean anomaly at epoch: 219.9968°
orbit number at epoch: 80138

The dashed part of the orbit path shows where the satellite is in the earth's shadow,  

DLR